Location: Mentone
(34.5413°N, 85.5351°W)
Time: 17:09:10
(UTC-05:00)

A-11 Canister half - Visible Passes

Search period start: 06 July 2015 00:00
Search period end: 16 July 2015 00:00
Orbit: 1527 x 1682 km, 47.3° (Epoch: 04 July)

Date Brightness Start Highest point End Pass type
(mag) Time Alt. Az. Time Alt. Az. Time Alt. Az.
06 Jul 10.0 21:30:07 10° WNW 21:38:15 34° SW 21:44:54 14° S visible
07 Jul 9.9 21:08:28 10° WNW 21:16:45 36° SW 21:24:40 11° SSE visible
08 Jul 9.9 20:46:49 10° WNW 20:55:15 38° SW 21:03:30 10° SSE visible
09 Jul 9.9 20:25:11 10° WNW 20:33:44 41° SW 20:42:08 10° SSE visible
14 Jul 11.2 20:48:24 10° WSW 20:50:03 10° SW 20:50:51 10° SW visible
15 Jul 11.1 20:25:24 10° WSW 20:28:33 11° SW 20:30:53 10° SW visible
